Simultaneous Nadir Overpasses (SNOs) Predictions

Prediction of SNOs between METOP-A and NOAA-19 Satellite Orbit:

Table of predicted SNOs for the next 14.0 days since TLE Epoch: 2/8/2014
Index Date (METOP-A) Time (METOP-A) Lat,Lon (METOP-A) SZA (METOP-A ) Date (NOAA-19) Time (NOAA-19) Lat,Lon (NOAA-19) SZA (NOAA-19 ) Distance(km) Time Diff (sec)
1 02/15/2014 20:44:57 74.45,-135.93 86.99 02/15/2014 20:43:49 74.46,-138.58 87.14 78.86 68
2 02/15/2014 21:35:49 -73.94, 30.12 93.47 02/15/2014 21:34:37 -73.94, 30.03 93.46 2.81 72
3 02/15/2014 22:26:30 73.88,-162.68 86.47 02/15/2014 22:25:41 73.88,-162.59 86.47 2.99 49
4 02/15/2014 23:17:12 -73.87, 4.61 93.56 02/15/2014 23:16:40 -73.89, 4.63 93.54 2.29 32
5 02/16/2014 00:07:52 73.86, 171.93 86.43 02/16/2014 00:07:45 73.88, 171.89 86.44 2.09 7
6
